Hourly Weather Runcevo

Today, 22 April, Thursday

Time Temperature Precipitation Wind Pressure Humidity
00:00 +4°C° 0 mm 2 mps 741 mmHg 92%
01:00 +2°C° 0 mm 3 mps 741 mmHg 93%
02:00 +2°C° 0 mm 3 mps 742 mmHg 92%
03:00 +2°C° 0 mm 3 mps 742 mmHg 92%
04:00 +2°C° 0 mm 3 mps 742 mmHg 93%
05:00 +1°C° 0 mm 3 mps 742 mmHg 94%
06:00 +3°C° 0 mm 3 mps 742 mmHg 89%
07:00 +4°C° 0 mm 4 mps 742 mmHg 84%
08:00 +6°C° 0 mm 4 mps 743 mmHg 79%
09:00 +7°C° 0 mm 4 mps 743 mmHg 76%
10:00 +8°C° 0 mm 5 mps 743 mmHg 73%
11:00 +9°C° 0 mm 5 mps 743 mmHg 70%
12:00 +10°C° 0.1 mm 5 mps 743 mmHg 65%
13:00 +12°C° 0.1 mm 4 mps 743 mmHg 61%
14:00 +13°C° 0.1 mm 4 mps 743 mmHg 56%
15:00 +13°C° 0.2 mm 4 mps 743 mmHg 59%
16:00 +12°C° 0.2 mm 4 mps 743 mmHg 61%
17:00 +12°C° 0.2 mm 4 mps 743 mmHg 63%
18:00 +11°C° 0 mm 3 mps 743 mmHg 69%
19:00 +10°C° 0 mm 3 mps 744 mmHg 76%
20:00 +8°C° 0 mm 3 mps 744 mmHg 82%
21:00 +8°C° 0 mm 3 mps 743 mmHg 83%
22:00 +8°C° 0 mm 3 mps 743 mmHg 84%
23:00 +8°C° 0 mm 3 mps 743 mmHg 85%

Tomorrow, 23 April, Friday

Time Temperature Precipitation Wind Pressure Humidity
00:00 +7°C° 0 mm 3 mps 743 mmHg 87%
01:00 +7°C° 0 mm 3 mps 743 mmHg 89%
02:00 +7°C° 0 mm 3 mps 743 mmHg 91%
03:00 +6°C° 0 mm 4 mps 743 mmHg 90%
04:00 +6°C° 0 mm 4 mps 743 mmHg 89%
05:00 +6°C° 0 mm 4 mps 743 mmHg 88%
06:00 +7°C° 0 mm 5 mps 743 mmHg 82%
07:00 +8°C° 0 mm 5 mps 743 mmHg 75%
08:00 +10°C° 0 mm 5 mps 743 mmHg 69%
09:00 +11°C° 0 mm 6 mps 743 mmHg 63%
10:00 +14°C° 0 mm 7 mps 742 mmHg 56%
11:00 +15°C° 0 mm 8 mps 742 mmHg 49%
12:00 +12°C° 0.6 mm 7 mps 742 mmHg 60%
13:00 +10°C° 0.6 mm 6 mps 743 mmHg 70%
14:00 +8°C° 0.6 mm 5 mps 743 mmHg 80%
15:00 +8°C° 0.7 mm 4 mps 743 mmHg 82%
16:00 +8°C° 0.7 mm 3 mps 743 mmHg 84%
17:00 +8°C° 0.7 mm 2 mps 743 mmHg 86%
18:00 +7°C° 1.2 mm 2 mps 742 mmHg 87%
19:00 +8°C° 1.2 mm 1 mps 742 mmHg 89%
20:00 +7°C° 1.2 mm 1 mps 742 mmHg 90%
21:00 +7°C° 1.6 mm 1 mps 741 mmHg 91%
22:00 +6°C° 1.6 mm 1 mps 741 mmHg 91%
23:00 +5°C° 1.6 mm 2 mps 740 mmHg 92%

Day after tomorrow, 24 April, Saturday

Time Temperature Precipitation Wind Pressure Humidity
00:00 +4°C° 2.7 mm 2 mps 740 mmHg 93%
01:00 +3°C° 2.7 mm 2 mps 739 mmHg 95%
02:00 +2°C° 2.7 mm 3 mps 738 mmHg 96%
03:00 +1°C° 2.5 mm 3 mps 738 mmHg 97%
04:00 +1°C° 2.5 mm 3 mps 738 mmHg 98%
05:00 +2°C° 2.5 mm 2 mps 738 mmHg 99%
06:00 +1°C° 0.5 mm 3 mps 738 mmHg 98%
07:00 +1°C° 0.5 mm 3 mps 738 mmHg 98%
08:00 +2°C° 0.5 mm 3 mps 738 mmHg 98%
09:00 +3°C° 0.3 mm 3 mps 738 mmHg 91%
10:00 +3°C° 0.3 mm 3 mps 738 mmHg 84%
11:00 +4°C° 0.3 mm 3 mps 738 mmHg 77%
12:00 +5°C° 0.3 mm 3 mps 738 mmHg 71%
13:00 +6°C° 0.3 mm 4 mps 738 mmHg 66%
14:00 +7°C° 0.3 mm 4 mps 738 mmHg 60%
15:00 +6°C° 0.3 mm 4 mps 738 mmHg 62%
16:00 +7°C° 0.3 mm 3 mps 738 mmHg 65%
17:00 +5°C° 0.3 mm 3 mps 738 mmHg 67%
18:00 +4°C° 0 mm 3 mps 739 mmHg 71%
19:00 +3°C° 0 mm 3 mps 739 mmHg 74%
20:00 +3°C° 0 mm 2 mps 739 mmHg 78%
21:00 +2°C° 0 mm 3 mps 739 mmHg 79%
22:00 +1°C° 0 mm 3 mps 739 mmHg 79%
23:00 +1°C° 0 mm 3 mps 739 mmHg 80%

25 April, Sunday

Time Temperature Precipitation Wind Pressure Humidity
00:00 0°C° 0 mm 3 mps 739 mmHg 81%
01:00 0°C° 0 mm 3 mps 739 mmHg 82%
02:00 -1°C° 0 mm 3 mps 739 mmHg 83%
03:00 -1°C° 0 mm 3 mps 739 mmHg 85%
04:00 -1°C° 0 mm 3 mps 739 mmHg 86%
05:00 -1°C° 0 mm 3 mps 740 mmHg 88%
06:00 -1°C° 0 mm 4 mps 740 mmHg 81%
07:00 +1°C° 0 mm 4 mps 740 mmHg 74%
08:00 +3°C° 0 mm 4 mps 740 mmHg 67%
09:00 +4°C° 0.3 mm 4 mps 740 mmHg 64%
10:00 +3°C° 0.3 mm 5 mps 740 mmHg 60%
11:00 +5°C° 0.3 mm 5 mps 740 mmHg 57%
12:00 +5°C° 0.3 mm 5 mps 740 mmHg 54%
13:00 +5°C° 0.3 mm 5 mps 740 mmHg 52%
14:00 +6°C° 0.3 mm 5 mps 740 mmHg 49%
15:00 +5°C° 0.1 mm 5 mps 740 mmHg 54%
16:00 +5°C° 0.1 mm 5 mps 740 mmHg 58%
17:00 +3°C° 0.1 mm 5 mps 741 mmHg 62%
18:00 +3°C° 0 mm 4 mps 741 mmHg 67%
19:00 +1°C° 0 mm 4 mps 741 mmHg 71%
20:00 +1°C° 0 mm 3 mps 741 mmHg 75%
21:00 0°C° 0 mm 3 mps 741 mmHg 77%
22:00 0°C° 0 mm 3 mps 742 mmHg 78%
23:00 -1°C° 0 mm 3 mps 742 mmHg 80%

26 April, Monday

Time Temperature Precipitation Wind Pressure Humidity
00:00 -1°C° 0 mm 3 mps 742 mmHg 80%
01:00 -1°C° 0 mm 3 mps 742 mmHg 80%
02:00 -1°C° 0 mm 3 mps 741 mmHg 81%
03:00 -1°C° 0 mm 3 mps 741 mmHg 81%
04:00 -1°C° 0 mm 3 mps 741 mmHg 82%
05:00 -1°C° 0 mm 3 mps 741 mmHg 82%
06:00 0°C° 0 mm 3 mps 741 mmHg 75%
07:00 +1°C° 0 mm 4 mps 741 mmHg 68%
08:00 +3°C° 0 mm 4 mps 741 mmHg 60%
09:00 +4°C° 0.1 mm 4 mps 741 mmHg 54%
10:00 +5°C° 0.1 mm 4 mps 741 mmHg 49%
11:00 +6°C° 0.1 mm 4 mps 741 mmHg 43%
12:00 +6°C° 0.1 mm 4 mps 741 mmHg 44%
13:00 +7°C° 0.1 mm 4 mps 740 mmHg 45%
14:00 +7°C° 0.1 mm 4 mps 740 mmHg 47%
15:00 +7°C° 0.2 mm 3 mps 740 mmHg 50%
16:00 +7°C° 0.2 mm 3 mps 740 mmHg 54%
17:00 +6°C° 0.2 mm 2 mps 739 mmHg 57%
18:00 +5°C° 0.1 mm 2 mps 739 mmHg 62%
19:00 +4°C° 0.1 mm 2 mps 739 mmHg 67%
20:00 +3°C° 0.1 mm 2 mps 739 mmHg 72%
21:00 +3°C° 0 mm 2 mps 739 mmHg 74%
22:00 +2°C° 0 mm 2 mps 739 mmHg 77%
23:00 +2°C° 0 mm 2 mps 739 mmHg 79%

27 April, Tuesday

Time Temperature Precipitation Wind Pressure Humidity
00:00 +1°C° 0 mm 2 mps 739 mmHg 80%
01:00 +1°C° 0 mm 2 mps 738 mmHg 81%
02:00 -1°C° 0 mm 2 mps 738 mmHg 82%
03:00 -1°C° 0 mm 2 mps 738 mmHg 82%
04:00 -1°C° 0 mm 2 mps 738 mmHg 82%
05:00 -1°C° 0 mm 2 mps 738 mmHg 82%
06:00 +1°C° 0 mm 3 mps 738 mmHg 75%
07:00 +2°C° 0 mm 3 mps 738 mmHg 69%
08:00 +4°C° 0 mm 4 mps 739 mmHg 63%
09:00 +5°C° 0.2 mm 4 mps 738 mmHg 58%
10:00 +5°C° 0.2 mm 5 mps 738 mmHg 52%
11:00 +6°C° 0.2 mm 5 mps 738 mmHg 47%
12:00 +6°C° 0.2 mm 5 mps 738 mmHg 48%
13:00 +5°C° 0.2 mm 6 mps 738 mmHg 49%
14:00 +5°C° 0.2 mm 6 mps 738 mmHg 51%
15:00 +6°C° 0 mm 5 mps 738 mmHg 51%
16:00 +6°C° 0 mm 5 mps 738 mmHg 52%
17:00 +6°C° 0 mm 5 mps 738 mmHg 53%
18:00 +5°C° 0 mm 5 mps 739 mmHg 59%
19:00 +3°C° 0 mm 5 mps 739 mmHg 65%
20:00 +2°C° 0 mm 5 mps 739 mmHg 72%
21:00 +1°C° 0 mm 4 mps 739 mmHg 75%
22:00 +1°C° 0 mm 4 mps 740 mmHg 79%
23:00 0°C° 0 mm 4 mps 740 mmHg 83%
Show more